Location: Newark
(46.9000°N, 28.3500°E)
Time: 19:22:52
(UTC+00:00)

Explorer 7 - Pass Details

Date: 31 August 2019
Orbit: 485 x 680 km, 50.3° (Epoch: 18 October)

Event Time Altitude Azimuth Distance (km) Brightness Sun altitude
Rises 08:34:50 0° 288° (WNW) 3,006 10.3 47.0°
Reaches altitude 10° 08:37:15 10° 291° (WNW) 2,072 9.5 47.3°
Maximum altitude 08:42:02 72° 16° (NNE) 668 7.9 47.7°
Drops below altitude 10° 08:46:33 10° 101° (ESE) 1,958 10.2 48.1°
Sets 08:48:46 0° 104° (ESE) 2,827 10.8 48.3°
